Stations météo

Publicité
Paris/Charles De Gaulle, France (7157): Température de l'air & dewpoint: 10.02.2019 19:00:00 - 16.02.2019 19:00:00 (CET)Paris/Charles De Gaulle, France (7157): Température de l'air 5cm: 10.02.2019 19:00:00 - 16.02.2019 19:00:00 (CET)Paris/Charles De Gaulle, France (7157): Température de l'air -20cm & Température de l'air -100cm: 10.02.2019 19:00:00 - 16.02.2019 19:00:00 (CET)Paris/Charles De Gaulle, France (7157): Vitesse du vent & gusts: 10.02.2019 19:00:00 - 16.02.2019 19:00:00 (CET)Paris/Charles De Gaulle, France (7157): Direction du vent: 10.02.2019 19:00:00 - 16.02.2019 19:00:00 (CET)Paris/Charles De Gaulle, France (7157): reduced air pressure: 10.02.2019 19:00:00 - 16.02.2019 19:00:00 (CET)Paris/Charles De Gaulle, France (7157): visibility: 10.02.2019 19:00:00 - 16.02.2019 19:00:00 (CET)Paris/Charles De Gaulle, France (7157): Ensoleillement: 10.02.2019 19:00:00 - 16.02.2019 19:00:00 (CET)Paris/Charles De Gaulle, France (7157): Quantités de précipitations: 10.02.2019 19:00:00 - 16.02.2019 19:00:00 (CET)
Date & Time tt [°C] td [°C] tt 5cm [°C] tt -20cm [°C] tt -100cm [°C] ff [km/h] ff [knt] fx [km/h] fx [knt] dd ppp [hPa] vv [km] sd [min] rr [mm]
16.02.2019 19:00:00 11,5 2,8 9,6 6,8 6,9 15 8 29 16 SSE 1024,9 18 0 0,0
16.02.2019 18:00:00 13,1 1,7 11,1 6,6 6,9 9 5 25 14 SSE 1024,8 18 27 0,0
16.02.2019 17:00:00 14,8 2,0 16,1 6,3 6,9 12 7 31 17 SSE 1025,2 20 55 0,0
16.02.2019 16:00:00 15,1 2,3 17,1 5,9 6,9 14 8 32 18 SSE 1025,7 15 60 0,0
16.02.2019 15:00:00 15,3 2,1 17,7 5,6 6,9 10 6 29 15 S 1026,1 12 60 0,0
16.02.2019 14:00:00 15,3 2,1 18,3 5,2 6,9 12 7 24 13 SSW 1026,6 12 60 0,0
16.02.2019 13:00:00 14,1 2,0 16,3 4,9 6,9 10 5 27 15 SSW 1027,2 10 60 0,0
16.02.2019 12:00:00 11,6 2,9 13,2 4,8 6,9 8 4 20 11 SSW 1027,9 7 60 0,0
16.02.2019 11:00:00 8,4 2,8 10,1 4,8 6,9 8 5 19 10 SSE 1027,9 7 60 0,0
16.02.2019 10:00:00 5,8 2,6 7,0 4,9 6,9 8 4 21 11 S 1027,9 6 60 0,0
16.02.2019 09:00:00 4,4 2,6 0,0 5,1 6,9 10 5 18 10 S 1027,9 6 37 0,0
16.02.2019 08:00:00 2,3 1,3 0,0 5,2 6,9 8 4 13 7 SE 1027,5 1,4 0 0,0
16.02.2019 07:00:00 3,1 2,4 -1,6 5,4 6,9 8 5 21 11 SE 1027,1 2,8 0 0,0
16.02.2019 06:00:00 1,0 0,1 -1,5 5,6 6,9 5 3 9 5 ESE 1027,5 2,8 0 0,0
16.02.2019 05:00:00 2,8 2,2 -1,5 5,7 6,8 8 5 12 7 SE 1027,0 2,8 0 0,0
16.02.2019 04:00:00 2,0 1,3 -1,7 5,9 6,9 7 4 11 6 SE 1027,1 3,8 0 0,0
16.02.2019 03:00:00 2,7 2,0 -0,8 6,0 6,9 9 5 11 6 SE 1027,3 5 0 0,0
16.02.2019 02:00:00 3,0 1,8 0,3 6,2 6,9 6 3 7 4 SSE 1027,6 5 0 0,0
16.02.2019 01:00:00 3,8 2,3 0,4 6,4 6,9 3 2 15 8 SE 1027,4 7 0 0,0
16.02.2019 00:00:00 4,9 2,8 1,6 6,5 6,9 4 2 12 7 E 1027,4 9 0 0,0
15.02.2019 23:00:00 5,5 2,0 1,6 6,6 6,9 4 2 32 17 SE 1027,3 10 0 0,0
15.02.2019 22:00:00 8,1 3,2 4,8 6,7 6,9 10 5 30 16 SE 1027,3 10 0 0,0
15.02.2019 21:00:00 8,8 3,0 5,4 6,7 6,9 8 5 20 11 SE 1027,5 15 0 0,0
15.02.2019 20:00:00 10,5 2,6 6,5 6,7 6,9 13 7 29 16 SSE 1027,6 12 0 0,0
15.02.2019 19:00:00 10,6 2,2 6,1 6,6 6,9 10 6 19 10 SE 1027,5 12 0 0,0
15.02.2019 18:00:00 13,2 2,4 10,2 6,4 6,9 5 3 12 7 ESE 1027,4 20 42 0,0
15.02.2019 17:00:00 15,6 1,7 17,9 6,0 6,8 10 5 18 10 SE 1027,4 20 60 0,0
15.02.2019 16:00:00 15,7 2,1 18,8 5,7 6,9 9 5 33 18 SE 1027,7 20 60 0,0
15.02.2019 15:00:00 15,5 1,6 18,5 5,3 6,9 15 8 33 18 SE 1028,2 15 60 0,0
15.02.2019 14:00:00 14,6 0,8 17,0 5,0 6,9 12 7 27 14 SE 1028,9 15 60 0,0
15.02.2019 13:00:00 13,1 0,5 14,7 4,8 6,9 13 7 29 16 SSE 1029,6 15 60 0,0
15.02.2019 12:00:00 10,7 1,2 13,0 4,7 6,9 11 6 29 16 SSE 1030,3 18 60 0,0
15.02.2019 11:00:00 9,1 1,0 10,7 4,6 6,9 12 7 24 13 SE 1030,7 18 60 0,0
15.02.2019 10:00:00 7,3 -0,2 7,6 4,7 6,9 13 7 32 18 SE 1030,8 15 60 0,0
15.02.2019 09:00:00 5,9 -1,1 4,0 4,8 6,9 15 8 23 13 ESE 1031,0 15 35 0,0
15.02.2019 08:00:00 5,2 -1,5 3,6 4,9 6,9 15 8 22 12 ESE 1030,9 15 0 0,0
15.02.2019 07:00:00 5,6 -1,3 3,4 5,0 6,9 15 8 23 12 ESE 1030,6 15 0 0,0
15.02.2019 06:00:00 4,9 -0,9 2,9 5,1 6,9 12 6 19 11 ESE 1030,5 15 0 0,0
15.02.2019 05:00:00 5,2 -0,8 3,0 5,2 6,9 11 6 16 9 ESE 1030,4 15 0 0,0
15.02.2019 04:00:00 4,6 -0,6 3,0 5,4 6,9 9 5 16 8 SE 1030,7 15 0 0,0
15.02.2019 03:00:00 5,8 0,1 4,3 5,5 6,9 11 6 18 10 ESE 1031,1 12 0 0,0
15.02.2019 02:00:00 6,2 1,3 3,6 5,7 6,9 12 7 16 9 E 1031,3 12 0 0,0
15.02.2019 01:00:00 4,8 2,0 2,0 5,8 6,9 9 5 15 8 E 1031,3 12 0 0,0
15.02.2019 00:00:00 5,9 1,6 2,8 5,9 6,9 8 4 15 8 ESE 1031,5 15 0 0,0
14.02.2019 23:00:00 6,4 2,3 3,5 5,9 6,9 5 3 11 6 ENE 1031,7 15 0 0,0
14.02.2019 22:00:00 7,2 2,1 5,1 6,0 6,9 11 6 23 12 E 1031,6 15 0 0,0
14.02.2019 21:00:00 7,6 2,3 6,1 6,0 6,9 15 8 25 14 E 1031,9 14 0 0,0
14.02.2019 20:00:00 8,8 2,8 7,0 6,0 6,9 17 9 23 12 E 1032,1 16 0 0,0
14.02.2019 19:00:00 8,8 3,4 7,4 5,9 6,9 14 8 18 10 E 1032,1 15 0 0,0
14.02.2019 18:00:00 10,5 3,1 9,0 5,7 6,9 12 7 20 11 E 1031,7 15 24 0,0
14.02.2019 17:00:00 11,4 3,7 12,7 5,5 6,9 11 6 22 12 E 1031,9 15 60 0,0
14.02.2019 16:00:00 11,3 3,1 12,6 5,1 6,9 16 9 23 13 E 1032,5 6 55 0,0
14.02.2019 15:00:00 11,2 3,5 13,8 4,8 6,9 11 6 19 11 E 1032,9 10 60 0,0
14.02.2019 14:00:00 10,2 3,0 13,1 4,5 6,9 9 5 20 11 E 1033,7 10 60 0,0
14.02.2019 13:00:00 9,7 2,8 11,5 4,3 6,9 8 4 24 13 ESE 1034,4 10 58 0,0
14.02.2019 12:00:00 7,8 1,6 9,4 4,2 6,9 9 5 22 12 SE 1034,9 12 60 0,0
14.02.2019 11:00:00 5,7 0,8 7,1 4,2 6,9 11 6 26 14 SE 1035,0 10 60 0,0
14.02.2019 10:00:00 4,2 0,2 5,3 4,3 6,9 15 8 29 15 SE 1035,0 10 60 0,0
14.02.2019 09:00:00 3,3 0,0 0,4 4,4 6,9 13 7 23 12 ESE 1035,2 10 35 0,0
14.02.2019 08:00:00 1,2 -0,6 -0,1 4,5 6,9 9 5 13 7 E 1034,9 10 0 0,0
14.02.2019 07:00:00 2,3 -0,1 -0,5 4,6 7,0 9 5 18 10 E 1034,6 10 0 0,0
14.02.2019 06:00:00 1,8 -0,1 -0,2 4,7 6,9 9 5 15 8 ESE 1034,3 10 0 0,0
14.02.2019 05:00:00 2,7 0,1 1,6 4,8 6,9 10 6 19 11 ESE 1034,3 10 0 0,0
14.02.2019 04:00:00 2,4 0,3 0,4 5,0 7,0 13 7 15 8 ESE 1034,4 10 0 0,0
14.02.2019 03:00:00 1,2 -0,6 0,2 5,1 7,0 11 6 13 7 E 1034,7 10 0 0,0
14.02.2019 02:00:00 2,9 0,3 1,2 5,2 7,0 9 5 16 9 ESE 1034,9 10 0 0,0
14.02.2019 01:00:00 3,6 0,6 1,5 5,4 7,0 13 7 19 10 ESE 1035,1 9 0 0,0
14.02.2019 00:00:00 2,6 0,5 1,0 5,5 7,0 7 4 18 10 E 1035,0 8 0 0,0
13.02.2019 23:00:00 2,7 1,4 1,1 5,6 7,0 10 5 18 10 ENE 1035,4 8 0 0,0
13.02.2019 22:00:00 3,1 0,5 2,1 5,7 7,0 9 5 15 8 NE 1035,8 10 0 0,0
13.02.2019 21:00:00 5,1 0,3 3,2 5,7 7,0 11 6 16 9 E 1035,4 10 0 0,0
13.02.2019 20:00:00 5,4 1,5 3,6 5,7 7,0 12 6 19 11 E 1035,2 15 0 0,0
13.02.2019 19:00:00 4,8 1,1 3,8 5,6 7,0 11 6 19 10 NE 1035,3 20 0 0,0
13.02.2019 18:00:00 6,4 0,9 5,3 5,5 7,0 9 5 15 8 E 1035,0 20 31 0,0
13.02.2019 17:00:00 8,2 0,9 9,1 5,2 7,0 10 6 18 10 ESE 1035,0 15 51 0,0
13.02.2019 16:00:00 8,3 1,9 10,9 4,9 7,0 8 5 22 12 ESE 1035,4 15 57 0,0
13.02.2019 15:00:00 7,9 1,7 10,2 4,6 7,0 10 6 19 10 ESE 1035,6 9 60 0,0
13.02.2019 14:00:00 6,7 1,8 8,6 4,4 7,0 9 5 25 14 ESE 1036,2 10 60 0,0
13.02.2019 13:00:00 4,6 2,0 6,9 4,2 7,0 11 6 26 14 SSE 1037,1 6 60 0,0
13.02.2019 12:00:00 2,5 0,9 4,4 4,2 7,0 8 4 24 13 SE 1037,9 0,8 60 0,0
13.02.2019 11:00:00 1,2 0,6 1,1 4,3 7,0 11 6 21 11 SE 1037,8 0,8 54 0,0
13.02.2019 10:00:00 -0,7 -1,0 -1,4 4,3 7,0 5 3 11 6 E 1037,9 0,3 17 0,0
13.02.2019 09:00:00 -1,8 -2,1 -1,7 4,4 7,0 8 4 12 7 SE 1038,0 0,1 0 0,0
13.02.2019 08:00:00 -1,7 -2,0 -1,7 4,5 7,0 8 4 11 6 E 1037,5 0,1 0 0,0
13.02.2019 07:00:00 -1,6 -1,9 -1,9 4,6 7,0 9 5 12 6 E 1037,5 0,1 0 0,0
13.02.2019 06:00:00 -1,7 -2,0 -2,1 4,7 7,0 7 4 11 6 E 1037,7 0,1 0 0,0
13.02.2019 05:00:00 -1,9 -2,3 -2,1 4,8 7,0 8 4 10 5 ENE 1037,4 0,1 0 0,0
13.02.2019 04:00:00 -0,7 -1,1 -1,9 4,9 7,0 6 3 12 6 SE 1037,5 0,1 0 0,0
13.02.2019 03:00:00 -1,0 -1,4 -2,4 5,0 7,0 8 5 11 6 SE 1037,7 0,1 0 0,0
13.02.2019 02:00:00 -0,2 -1,0 -1,4 5,2 7,0 5 3 10 6 E 1037,8 0,1 0 0,0
13.02.2019 01:00:00 2,0 1,3 0,8 5,3 7,0 8 4 29 16 SSE 1037,4 1,9 0 0,0
13.02.2019 00:00:00 2,1 1,1 0,3 5,4 7,0 10 5 14 8 SSE 1037,6 5 0 0,0
12.02.2019 23:00:00 2,5 0,1 1,1 5,6 7,0 5 3 26 14 SSE 1037,6 9 0 0,0
12.02.2019 22:00:00 3,3 0,3 0,7 5,6 7,0 8 5 19 10 SE 1037,6 10 0 0,0
12.02.2019 21:00:00 3,9 0,4 2,4 5,7 7,0 8 4 15 8 S 1037,5 12 0 0,0
12.02.2019 20:00:00 4,4 0,5 3,1 5,7 7,0 11 6 29 16 SSE 1037,4 18 0 0,0
12.02.2019 19:00:00 5,4 0,6 4,1 5,6 7,0 9 5 20 11 SSE 1037,2 25 0 0,0
12.02.2019 18:00:00 6,9 0,6 6,0 5,5 7,0 8 4 12 6 ESE 1036,6 25 0 0,0
12.02.2019 17:00:00 8,0 -0,5 8,3 5,2 7,0 3 1 14 7 S 1036,2 25 35 0,0
12.02.2019 16:00:00 8,0 0,0 9,2 5,0 7,0 3 2 13 7 SW 1036,3 25 10 0,0
12.02.2019 15:00:00 7,9 -0,1 9,6 4,8 7,0 6 3 21 12 NW 1036,7 25 3 0,0
12.02.2019 14:00:00 7,9 1,3 9,0 4,7 7,0 10 6 25 14 WSW 1036,6 14 21 0,0
12.02.2019 13:00:00 6,7 2,2 7,3 4,6 7,0 12 7 28 15 SW 1036,9 9 1 0,0
12.02.2019 12:00:00 5,3 2,3 4,9 4,6 7,0 11 6 34 18 SSW 1037,3 7 0 0,0
12.02.2019 11:00:00 4,0 2,7 3,0 4,7 7,0 10 6 16 8 SW 1037,1 6 0 0,0
12.02.2019 10:00:00 2,6 2,0 1,8 4,7 7,0 6 3 16 9 SSW 1037,1 4,5 0 0,0
12.02.2019 09:00:00 2,1 1,8 0,5 4,8 7,0 6 3 10 5 SW 1036,7 3,0 0 0,0
12.02.2019 08:00:00 1,6 1,3 -1,7 4,9 7,0 5 3 8 5 WSW 1036,0 0,3 0 0,0
12.02.2019 07:00:00 0,9 0,5 -2,4 5,0 7,0 5 3 7 4 W 1035,8 0,3 0 0,0
12.02.2019 06:00:00 0,4 0,0 -2,4 5,2 7,0 6 4 9 5 W 1035,6 0,4 0 0,0
12.02.2019 05:00:00 0,3 -0,3 -2,3 5,3 7,0 0 0 5 3 N 1035,3 5 0 0,0
12.02.2019 04:00:00 0,6 0,0 -1,9 5,5 7,0 4 2 9 5 W 1035,8 8 0 0,0
12.02.2019 03:00:00 0,6 -0,3 -1,9 5,6 7,0 3 1 5 3 SSW 1035,4 8 0 0,0
12.02.2019 02:00:00 1,6 0,6 -0,1 5,8 7,0 4 2 8 4 WNW 1035,1 8 0 0,0
12.02.2019 01:00:00 2,5 1,0 1,2 5,9 7,0 5 3 13 7 W 1034,7 10 0 0,0
12.02.2019 00:00:00 3,0 1,4 1,2 6,0 7,0 9 5 10 5 W 1034,4 20 0 0,0
11.02.2019 23:00:00 2,7 1,1 1,3 6,1 7,0 4 2 9 5 WNW 1034,1 20 0 0,0
11.02.2019 22:00:00 4,1 1,6 2,7 6,2 6,9 6 3 14 8 N 1033,3 30 0 0,0
11.02.2019 21:00:00 4,1 1,5 3,1 6,3 7,0 12 6 19 10 NNW 1032,6 30 0 0,0
11.02.2019 20:00:00 4,9 1,9 3,7 6,3 6,9 12 7 21 11 NNW 1031,7 30 0 0,0
11.02.2019 19:00:00 5,7 2,5 4,8 6,3 6,9 11 6 17 9 NNW 1030,8 30 0 0,0
11.02.2019 18:00:00 7,2 3,2 6,6 6,2 6,9 10 5 16 8 WNW 1029,6 30 10 0,0
11.02.2019 17:00:00 7,6 2,9 7,8 6,1 6,9 11 6 22 12 NW 1028,6 30 3 0,0
11.02.2019 16:00:00 8,1 3,0 8,6 5,9 6,9 16 9 28 15 NW 1027,8 30 0 0,0
11.02.2019 15:00:00 8,0 3,1 7,8 5,8 6,9 18 10 30 16 NNW 1026,6 38 16 0,0
11.02.2019 14:00:00 7,7 3,9 8,3 5,6 6,9 21 11 31 17 NW 1025,7 20 0 0,0
11.02.2019 13:00:00 7,5 4,8 8,3 5,6 6,9 16 9 27 14 NW 1024,7 20 8 0,0
11.02.2019 12:00:00 6,5 4,5 6,2 5,5 6,9 17 9 27 15 WNW 1023,9 20 0 0,0
11.02.2019 11:00:00 5,5 3,7 4,8 5,5 6,9 16 9 24 13 W 1022,7 20 0 0,0
11.02.2019 10:00:00 4,6 3,3 3,9 5,5 6,9 19 10 40 22 WSW 1021,6 15 0 0,0
11.02.2019 09:00:00 4,1 2,6 3,6 5,6 6,9 20 11 29 15 SW 1020,4 18 0 0,0
11.02.2019 08:00:00 4,0 2,0 3,3 5,7 6,9 20 11 27 15 SW 1019,5 20 0 0,0
11.02.2019 07:00:00 3,7 1,9 2,8 5,8 6,8 19 10 27 15 SW 1018,6 34 0 0,0
11.02.2019 06:00:00 3,4 1,6 2,7 5,9 6,9 17 9 20 11 SW 1018,4 20 0 0,0
11.02.2019 05:00:00 3,4 1,6 2,5 6,1 6,8 14 8 21 11 WSW 1017,6 20 0 0,0
11.02.2019 04:00:00 3,7 1,6 3,0 6,2 6,9 16 9 22 12 WSW 1016,8 20 0 0,0
11.02.2019 03:00:00 4,0 1,4 3,1 6,3 6,8 16 9 31 17 W 1016,6 20 0 0,0
11.02.2019 02:00:00 4,1 1,5 3,2 6,5 6,8 21 11 29 16 W 1016,0 42 0 0,0
11.02.2019 01:00:00 4,3 1,7 3,2 6,6 6,8 15 8 29 16 W 1014,9 20 0 0,0
11.02.2019 00:00:00 4,7 1,7 3,3 6,7 6,8 21 11 31 17 W 1013,7 33 0 0,0
10.02.2019 23:00:00 4,8 2,5 3,5 6,8 6,8 18 10 34 19 W 1012,9 34 0 1,0
10.02.2019 22:00:00 5,2 2,4 4,1 6,9 6,8 23 12 34 19 W 1011,6 12 0 0,0
10.02.2019 21:00:00 5,0 2,4 4,3 7,0 6,8 22 12 35 19 W 1010,6 12 0 0,0
10.02.2019 20:00:00 5,1 3,3 4,0 7,1 6,8 22 12 43 23 W 1009,2 47 0 0,6
10.02.2019 19:00:00 5,1 3,4 4,4 7,1 6,8 31 17 69 37 W 1007,7 12 0 1,0

tt = Température de l'air
td = dewpoint
tt 5cm = Température de l'air 5cm
tt -20cm = Température de l'air -20cm
tt -100cm = Température de l'air -100cm
ff = Vitesse du vent
fx = gusts
dd = Direction du vent
ppp = reduced air pressure
vv = visibility
sd = Ensoleillement
rr = Quantités de précipitations

stations d'obs. à proximité